Weather History for KFOK - January, 2013

Change the Weather History Date:

Sunday, January 6, 2013

  Actual Average Record
Temperature  
Mean Temperature 33 °F -  
Max Temperature 43 °F 38 °F 59 °F (2007)
Min Temperature 23 °F 23 °F 1 °F (1999)
Degree Days  
Heating Degree Days 32    
Moisture  
Dew Point 29 °F    
Average Humidity 81    
Maximum Humidity 100    
Minimum Humidity 62    
Precipitation  
Precipitation 0.00 in - - ()
Sea Level Pressure  
Sea Level Pressure 30.10 in    
Wind  
Wind Speed 4 mph (WSW)    
Max Wind Speed 14 mph    
Max Gust Speed 21 mph    
Visibility 7 miles    
Events Rain , Snow    
Averages and records for this station are not official NWS values.
T = Trace of Precipitation, MM = Missing Value Source: NWS Daily Summary

Daily Weather History Graph

Daily Weather History Graph

Search for Another Location

Airport or City:

Trip Planner

Search our weather history database for the weather conditions in past years. The results will help you decide how hot, cold, wet, or windy it might be!

Date:

Astronomy

Jan. 06, 2013 Rise Set
Actual Time 7:15 AM EST 4:38 PM EST
Civil Twilight 6:44 AM EST 5:08 PM EST
Nautical Twilight 6:10 AM EST 5:43 PM EST
Astronomical Twilight 5:36 AM EST 6:16 PM EST
Moon 1:25 AM EST (1/6) 12:04 PM EST (1/6)
Length of Visible Light 10h 24m
Length of Day
9h 23m
Waning Crescent, 33% of the Moon is Illuminated
Jan 6
Waning Crescent
Jan 11
New
Jan 18
First Quarter
Jan 26
Full
Feb 3
Last Quarter

Hourly Weather History & Observations

Time (EST) Temp. Windchill Dew Point Humidity Pressure Visibility Wind Dir Wind Speed Gust Speed Precip Events Conditions
12:53 AM 27.0 °F 23.0 °F 21.0 °F 78% 30.23 in 10.0 mi NNW 3.5 mph - N/A   Overcast
1:53 AM 28.9 °F - 23.0 °F 78% 30.24 in 10.0 mi Calm Calm - N/A   Scattered Clouds
2:53 AM 28.9 °F - 24.1 °F 82% 30.22 in 10.0 mi Calm Calm - N/A   Overcast
3:53 AM 36.0 °F 31.1 °F 27.0 °F 70% 30.18 in 10.0 mi SW 5.8 mph - N/A   Overcast
4:53 AM 36.0 °F 27.5 °F 30.0 °F 79% 30.17 in 9.0 mi WSW 12.7 mph - 0.00 in Rain Light Rain
5:18 AM 33.8 °F 26.4 °F 28.4 °F 81% 30.16 in 4.0 mi WSW 9.2 mph - 0.00 in Snow Light Snow
5:53 AM 34.0 °F 28.0 °F 30.0 °F 85% 30.15 in 5.0 mi WSW 6.9 mph - 0.00 in Snow Light Snow
6:11 AM 33.8 °F 27.7 °F 30.2 °F 87% 30.16 in 2.5 mi WSW 6.9 mph - 0.00 in Snow Light Snow
6:40 AM 33.8 °F - 30.2 °F 87% 30.15 in 3.0 mi Calm Calm - 0.00 in   Overcast
6:53 AM 33.1 °F 30.0 °F 30.9 °F 92% 30.14 in 3.0 mi SSW 3.5 mph - 0.00 in   Overcast
7:28 AM 33.8 °F 30.8 °F 30.2 °F 87% 30.14 in 4.0 mi SW 3.5 mph - N/A   Overcast
7:40 AM 33.8 °F - 32.0 °F 93% 30.14 in 3.0 mi Calm Calm - N/A   Overcast
7:53 AM 34.0 °F - 32.0 °F 92% 30.14 in 3.0 mi Calm Calm - N/A   Overcast
8:27 AM 33.8 °F - 33.8 °F 100% 30.14 in 2.5 mi Calm Calm - N/A   Overcast
8:53 AM 34.0 °F - 33.1 °F 96% 30.13 in 1.8 mi Calm Calm - N/A   Overcast
9:23 AM 35.6 °F - 32.0 °F 87% 30.12 in 3.0 mi Calm Calm - N/A   Overcast
9:33 AM 35.6 °F 32.8 °F 33.8 °F 93% 30.12 in 4.0 mi WSW 3.5 mph - N/A   Overcast
9:53 AM 37.0 °F 32.4 °F 34.0 °F 89% 30.12 in 5.0 mi West 5.8 mph - N/A   Overcast
10:34 AM 39.2 °F 32.0 °F 35.6 °F 87% 30.10 in 10.0 mi West 11.5 mph - N/A   Scattered Clouds
11:53 AM 42.1 °F 34.9 °F 32.0 °F 67% 30.04 in 10.0 mi WSW 13.8 mph 20.7 mph N/A   Clear
12:53 PM 43.0 °F 37.7 °F 33.1 °F 68% 30.02 in 10.0 mi SW 9.2 mph 17.3 mph N/A   Clear
1:53 PM 43.0 °F 37.2 °F 30.9 °F 62% 30.01 in 10.0 mi SW 10.4 mph - N/A   Clear
2:53 PM 43.0 °F 37.7 °F 30.9 °F 62% 30.00 in 10.0 mi WSW 9.2 mph - N/A   Clear
3:53 PM 41.0 °F 35.8 °F 30.9 °F 67% 29.99 in 10.0 mi SW 8.1 mph - N/A   Clear
4:53 PM 36.0 °F 32.1 °F 28.9 °F 76% 30.00 in 10.0 mi WSW 4.6 mph - N/A   Clear
5:53 PM 30.0 °F - 25.0 °F 82% 30.01 in 8.0 mi Calm Calm - N/A   Clear
6:53 PM 27.0 °F - 21.9 °F 81% 30.02 in 9.0 mi Calm Calm - N/A   Clear
7:53 PM 25.0 °F - 21.0 °F 85% 30.01 in 9.0 mi Calm Calm - N/A   Clear
8:53 PM 23.0 °F - 19.9 °F 88% 30.01 in 8.0 mi Calm Calm - N/A   Clear
9:53 PM 35.1 °F 27.9 °F 28.0 °F 76% 30.03 in 10.0 mi West 9.2 mph - N/A   Partly Cloudy
10:53 PM 34.0 °F 29.8 °F 24.1 °F 67% 30.04 in 10.0 mi WNW 4.6 mph - N/A   Clear
11:53 PM 27.0 °F - 21.0 °F 78% 30.04 in 10.0 mi Calm Calm - N/A   Clear